Torna al catalogo

STARLINK-35091

AttivoComunicazioniVLEO
NORAD 65640·PAYLOAD·🇺🇸 United States

Lanciato Sep 18, 2025 da Cape Canaveral Space Force Station

Loading…

Prossimi Passaggi (prossime 24 ore)

TLE

AggiornatoSource: CelesTrak SupGP

Epoca: Sep 14, 2026, 14:03 UTC

1 65640C 25210U   26257.58590278  .00058989  00000+0  17440-2 0  2570
2 65640  53.1572 145.5972 0001287 105.9093 102.8193 15.34340860    13

Traccia STARLINK-35091 in tempo reale con AllMySat

Download on the App Store